Home > Weather > Ciudad del Este > Past weeks

Flag for Paraguay Past Weather in Ciudad del Este, Paraguay — Yesterday and Last 2 Weeks

Now
61 °F

Clear.


Feels Like: 61 °F
Forecast: 61 / 75 °F
Wind: 10 mph from East

Location: Foz Do Iguacu Aeroporto

Current Time: Jun 25, 2016 at 4:58:38 AM

Latest Report: Jun 25, 2016 at 4:00 AM


Visibility: 10 mi

Pressure: 30.07 "Hg

Humidity: 88%

Dew Point: 57 °F

Location of Ciudad del EsteLocation

Past Weather in Ciudad del Este — Graph

°F

Ciudad del Este Temperature Yesterday

Maximum temperature yesterday: 75 °F (at 3:00 PM)
Minimum temperature yesterday: 55 °F (at 12:00 AM)
Average temperature yesterday: 64 °F

High & Low Weather Summary for the Past Weeks

 TemperatureHumidityPressure
High75 °F (Jun 24, 3:00 PM)100% (Jun 10, 4:00 AM)30.48 "Hg (Jun 10, 4:00 AM)
Low28 °F (Jun 12, 6:00 AM)34% (Jun 12, 3:00 PM)30.04 "Hg (Jun 24, 3:00 PM)
Average56 °F83%30.20 "Hg
* Reported Jun 10 3:00 AM — Jun 25 3:00 AM, Ciudad del Este, Weather by CustomWeather, © 2016

Note: Actual official high and low records may vary slightly from our data, if they occured in-between our weather recording intervals... More about our weather records

Advertising

Ciudad del Este Weather History for the Previous 24 Hours

Scroll right to see more
 ConditionsComfort  
Time TempWeatherWind HumidityBarometerVisibility
3:00 AM
Sat, Jun 25
63 °FClear.9 mph83%30.09 "Hg10 mi
2:00 AM63 °FClear.8 mph83%30.12 "Hg10 mi
1:00 AM63 °FClear.9 mph83%30.12 "Hg10 mi
12:00 AM64 °FClear.10 mph83%30.09 "Hg10 mi
11:00 PM
Fri, Jun 24
64 °FClear.9 mph83%30.09 "Hg10 mi
10:00 PM64 °FClear.9 mph83%30.09 "Hg10 mi
9:00 PM66 °FClear.9 mph78%30.09 "Hg10 mi
8:00 PM66 °FClear.12 mph78%30.09 "Hg10 mi
7:00 PM68 °FClear.10 mph78%30.07 "Hg10 mi
6:00 PM68 °FClear.8 mph78%30.07 "Hg10 mi
5:00 PM66 °FClear.3 mph88%30.04 "Hg10 mi
4:00 PM73 °FClear.5 mph65%30.04 "Hg10 mi
3:00 PM75 °FSunny.9 mph61%30.04 "Hg10 mi
2:00 PM73 °FSunny.9 mph61%30.07 "Hg10 mi
1:00 PM73 °FSunny.8 mph61%30.07 "Hg10 mi
12:00 PM72 °FSunny.7 mph61%30.09 "Hg10 mi
11:00 AM68 °FSunny.9 mph69%30.12 "Hg10 mi
10:00 AM64 °FSunny.8 mph73%30.12 "Hg10 mi
9:00 AM63 °FSunny.9 mph77%30.12 "Hg10 mi
8:00 AM57 °FSunny.8 mph88%30.12 "Hg10 mi
7:00 AM55 °FSunny.8 mph88%30.09 "Hg10 mi
6:00 AM55 °FSunny.10 mph88%30.09 "Hg10 mi
5:00 AM55 °FClear.9 mph88%30.07 "Hg10 mi
4:00 AM55 °FClear.12 mph88%30.07 "Hg10 mi
Weather by CustomWeather, © 2016

See weather overviewHow to use our weather pages